Year,Month,Day,Hour,Minute,Value (Times are PST for temperature in C)
2016,03,27,00,00,7.40
2016,03,27,00,01,7.40
2016,03,27,00,02,7.40
2016,03,27,00,03,7.40
2016,03,27,00,04,7.40
2016,03,27,00,05,7.40
2016,03,27,00,06,7.40
2016,03,27,00,07,7.40
2016,03,27,00,08,7.40
2016,03,27,00,09,7.50
2016,03,27,00,10,7.50
2016,03,27,00,11,7.50
2016,03,27,00,12,7.50
2016,03,27,00,13,7.50
2016,03,27,00,14,7.60
2016,03,27,00,15,7.60
2016,03,27,00,16,7.60
2016,03,27,00,17,7.60
2016,03,27,00,18,7.60
2016,03,27,00,19,7.60
2016,03,27,00,20,7.60
2016,03,27,00,21,7.60
2016,03,27,00,22,7.60
2016,03,27,00,23,7.60
2016,03,27,00,24,7.60
2016,03,27,00,25,7.60
2016,03,27,00,26,7.50
2016,03,27,00,27,7.50
2016,03,27,00,28,7.50
2016,03,27,00,29,7.40
2016,03,27,00,30,7.40
2016,03,27,00,31,7.40
2016,03,27,00,32,7.40
2016,03,27,00,33,7.30
2016,03,27,00,34,7.30
2016,03,27,00,35,7.30
2016,03,27,00,36,7.30
2016,03,27,00,37,7.30
2016,03,27,00,38,7.30
2016,03,27,00,39,7.30
2016,03,27,00,40,7.30
2016,03,27,00,41,7.30
2016,03,27,00,42,7.30
2016,03,27,00,43,7.30
2016,03,27,00,44,7.30
2016,03,27,00,45,7.30
2016,03,27,00,46,7.30
2016,03,27,00,47,7.30
2016,03,27,00,48,7.30
2016,03,27,00,49,7.30
2016,03,27,00,50,7.30
2016,03,27,00,51,7.30
2016,03,27,00,52,7.30
2016,03,27,00,53,7.30
2016,03,27,00,54,7.30
2016,03,27,00,55,7.30
2016,03,27,00,56,7.30
2016,03,27,00,57,7.30
2016,03,27,00,58,7.30
2016,03,27,00,59,7.30
2016,03,27,01,00,7.30
2016,03,27,01,01,7.30
2016,03,27,01,02,7.30
2016,03,27,01,03,7.30
2016,03,27,01,04,7.30
2016,03,27,01,05,7.30
2016,03,27,01,06,7.30
2016,03,27,01,07,7.30
2016,03,27,01,08,7.30
2016,03,27,01,09,7.30
2016,03,27,01,10,7.30
2016,03,27,01,11,7.30
2016,03,27,01,12,7.30
2016,03,27,01,13,7.20
2016,03,27,01,14,7.20
2016,03,27,01,15,7.20
2016,03,27,01,16,7.20
2016,03,27,01,17,7.20
2016,03,27,01,18,7.20
2016,03,27,01,19,7.20
2016,03,27,01,20,7.20
2016,03,27,01,21,7.20
2016,03,27,01,22,7.20
2016,03,27,01,23,7.20
2016,03,27,01,24,7.20
2016,03,27,01,25,7.20
2016,03,27,01,26,7.20
2016,03,27,01,27,7.20
2016,03,27,01,28,7.20
2016,03,27,01,29,7.20
2016,03,27,01,30,7.20
2016,03,27,01,31,7.20
2016,03,27,01,32,7.20
2016,03,27,01,33,7.20
2016,03,27,01,34,7.20
2016,03,27,01,35,7.20
2016,03,27,01,36,7.20
2016,03,27,01,37,7.20
2016,03,27,01,38,7.20
2016,03,27,01,39,7.20
2016,03,27,01,40,7.20
2016,03,27,01,41,7.20
2016,03,27,01,42,7.20
2016,03,27,01,43,7.20
2016,03,27,01,44,7.20
2016,03,27,01,45,7.20
2016,03,27,01,46,7.20
2016,03,27,01,47,7.20
2016,03,27,01,48,7.20
2016,03,27,01,49,7.20
2016,03,27,01,50,7.20
2016,03,27,01,51,7.20
2016,03,27,01,52,7.20
2016,03,27,01,53,7.20
2016,03,27,01,54,7.20
2016,03,27,01,55,7.20
2016,03,27,01,56,7.20
2016,03,27,01,57,7.20
2016,03,27,01,58,7.20
2016,03,27,01,59,7.20
2016,03,27,02,00,7.20
2016,03,27,02,01,7.20
2016,03,27,02,02,7.20
2016,03,27,02,03,7.20
2016,03,27,02,04,7.20
2016,03,27,02,05,7.20
2016,03,27,02,06,7.20
2016,03,27,02,07,7.20
2016,03,27,02,08,7.20
2016,03,27,02,09,7.20
2016,03,27,02,10,7.20
2016,03,27,02,11,7.20
2016,03,27,02,12,7.20
2016,03,27,02,13,7.20
2016,03,27,02,14,7.20
2016,03,27,02,15,7.20
2016,03,27,02,16,7.20
2016,03,27,02,17,7.20
2016,03,27,02,18,7.20
2016,03,27,02,19,7.20
2016,03,27,02,20,7.20
2016,03,27,02,21,7.20
2016,03,27,02,22,7.20
2016,03,27,02,23,7.20
2016,03,27,02,24,7.20
2016,03,27,02,25,7.20
2016,03,27,02,26,7.20
2016,03,27,02,27,7.20
2016,03,27,02,28,7.20
2016,03,27,02,29,7.20
2016,03,27,02,30,7.20
2016,03,27,02,31,7.20
2016,03,27,02,32,7.20
2016,03,27,02,33,7.20
2016,03,27,02,34,7.20
2016,03,27,02,35,7.20
2016,03,27,02,36,7.20
2016,03,27,02,37,7.20
2016,03,27,02,38,7.20
2016,03,27,02,39,7.20
2016,03,27,02,40,7.20
2016,03,27,02,41,7.20
2016,03,27,02,42,7.20
2016,03,27,02,43,7.20
2016,03,27,02,44,7.20
2016,03,27,02,45,7.20
2016,03,27,02,46,7.20
2016,03,27,02,47,7.20
2016,03,27,02,48,7.10
2016,03,27,02,49,7.10
2016,03,27,02,50,7.10
2016,03,27,02,51,7.10
2016,03,27,02,52,7.10
2016,03,27,02,53,7.10
2016,03,27,02,54,7.10
2016,03,27,02,55,7.00
2016,03,27,02,56,7.00
2016,03,27,02,57,7.00
2016,03,27,02,58,7.00
2016,03,27,02,59,7.00
2016,03,27,03,00,7.00
2016,03,27,03,01,7.00
2016,03,27,03,02,7.00
2016,03,27,03,03,7.00
2016,03,27,03,04,7.00
2016,03,27,03,05,6.90
2016,03,27,03,06,6.90
2016,03,27,03,07,6.90
2016,03,27,03,08,6.90
2016,03,27,03,09,6.90
2016,03,27,03,10,6.90
2016,03,27,03,11,6.90
2016,03,27,03,12,6.90
2016,03,27,03,13,6.90
2016,03,27,03,14,6.90
2016,03,27,03,15,6.90
2016,03,27,03,16,6.90
2016,03,27,03,17,6.90
2016,03,27,03,18,6.90
2016,03,27,03,19,6.90
2016,03,27,03,20,6.90
2016,03,27,03,21,6.90
2016,03,27,03,22,6.90
2016,03,27,03,23,6.90
2016,03,27,03,24,6.90
2016,03,27,03,25,6.90
2016,03,27,03,26,6.90
2016,03,27,03,27,6.90
2016,03,27,03,28,6.90
2016,03,27,03,29,6.90
2016,03,27,03,30,6.90
2016,03,27,03,31,6.90
2016,03,27,03,32,6.90
2016,03,27,03,33,6.90
2016,03,27,03,34,6.90
2016,03,27,03,35,6.90
2016,03,27,03,36,6.90
2016,03,27,03,37,6.90
2016,03,27,03,38,6.90
2016,03,27,03,39,6.90
2016,03,27,03,40,6.90
2016,03,27,03,41,6.90
2016,03,27,03,42,6.90
2016,03,27,03,43,6.90
2016,03,27,03,44,6.90
2016,03,27,03,45,6.90
2016,03,27,03,46,6.90
2016,03,27,03,47,6.90
2016,03,27,03,48,6.90
2016,03,27,03,49,6.80
2016,03,27,03,50,6.80
2016,03,27,03,51,6.80
2016,03,27,03,52,6.90
2016,03,27,03,53,6.80
2016,03,27,03,54,6.90
2016,03,27,03,55,6.90
2016,03,27,03,56,6.80
2016,03,27,03,57,6.90
2016,03,27,03,58,6.80
2016,03,27,03,59,6.80
2016,03,27,04,00,6.80
2016,03,27,04,01,6.70
2016,03,27,04,02,6.60
2016,03,27,04,03,6.60
2016,03,27,04,04,6.50
2016,03,27,04,05,6.40
2016,03,27,04,06,6.40
2016,03,27,04,07,6.40
2016,03,27,04,08,6.30
2016,03,27,04,09,6.30
2016,03,27,04,10,6.30
2016,03,27,04,11,6.20
2016,03,27,04,12,6.10
2016,03,27,04,13,6.10
2016,03,27,04,14,6.00
2016,03,27,04,15,6.00
2016,03,27,04,16,5.90
2016,03,27,04,17,5.90
2016,03,27,04,18,5.80
2016,03,27,04,19,5.80
2016,03,27,04,20,5.80
2016,03,27,04,21,5.80
2016,03,27,04,22,5.80
2016,03,27,04,23,5.80
2016,03,27,04,24,5.70
2016,03,27,04,25,5.70
2016,03,27,04,26,5.70
2016,03,27,04,27,5.70
2016,03,27,04,28,5.60
2016,03,27,04,29,5.60
2016,03,27,04,30,5.60
2016,03,27,04,31,5.60
2016,03,27,04,32,5.60
2016,03,27,04,33,5.60
2016,03,27,04,34,5.50
2016,03,27,04,35,5.50
2016,03,27,04,36,5.50
2016,03,27,04,37,5.50
2016,03,27,04,38,5.50
2016,03,27,04,39,5.50
2016,03,27,04,40,5.50
2016,03,27,04,41,5.50
2016,03,27,04,42,5.50
2016,03,27,04,43,5.50
2016,03,27,04,44,5.50
2016,03,27,04,45,5.40
2016,03,27,04,46,5.50
2016,03,27,04,47,5.50
2016,03,27,04,48,5.50
2016,03,27,04,49,5.50
2016,03,27,04,50,5.50
2016,03,27,04,51,5.50
2016,03,27,04,52,5.50
2016,03,27,04,53,5.50
2016,03,27,04,54,5.50
2016,03,27,04,55,5.50
2016,03,27,04,56,5.50
2016,03,27,04,57,5.50
2016,03,27,04,58,5.50
2016,03,27,04,59,5.50
2016,03,27,05,00,5.50
2016,03,27,05,01,5.50
2016,03,27,05,02,5.50
2016,03,27,05,03,5.50
2016,03,27,05,04,5.50
2016,03,27,05,05,5.50
2016,03,27,05,06,5.50
2016,03,27,05,07,5.50
2016,03,27,05,08,5.50
2016,03,27,05,09,5.40
2016,03,27,05,10,5.50
2016,03,27,05,11,5.40
2016,03,27,05,12,5.40
2016,03,27,05,13,5.40
2016,03,27,05,14,5.40
2016,03,27,05,15,5.40
2016,03,27,05,16,5.40
2016,03,27,05,17,5.40
2016,03,27,05,18,5.40
2016,03,27,05,19,5.40
2016,03,27,05,20,5.40
2016,03,27,05,21,5.40
2016,03,27,05,22,5.40
2016,03,27,05,23,5.40
2016,03,27,05,24,5.40
2016,03,27,05,25,5.40
2016,03,27,05,26,5.40
2016,03,27,05,27,5.40
2016,03,27,05,28,5.40
2016,03,27,05,29,5.40
2016,03,27,05,30,5.40
2016,03,27,05,31,5.40
2016,03,27,05,32,5.40
2016,03,27,05,33,5.40
2016,03,27,05,34,5.40
2016,03,27,05,35,5.40
2016,03,27,05,36,5.40
2016,03,27,05,37,5.40
2016,03,27,05,38,5.40
2016,03,27,05,39,5.40
2016,03,27,05,40,5.40
2016,03,27,05,41,5.40
2016,03,27,05,42,5.40
2016,03,27,05,43,5.40
2016,03,27,05,44,5.40
2016,03,27,05,45,5.40
2016,03,27,05,46,5.40
2016,03,27,05,47,5.40
2016,03,27,05,48,5.40
2016,03,27,05,49,5.40
2016,03,27,05,50,5.40
2016,03,27,05,51,5.40
2016,03,27,05,52,5.40
2016,03,27,05,53,5.40
2016,03,27,05,54,5.40
2016,03,27,05,55,5.40
2016,03,27,05,56,5.40
2016,03,27,05,57,5.40
2016,03,27,05,58,5.40
2016,03,27,05,59,5.40
2016,03,27,06,00,5.40
2016,03,27,06,01,5.40
2016,03,27,06,02,5.40
2016,03,27,06,03,5.40
2016,03,27,06,04,5.30
2016,03,27,06,05,5.30
2016,03,27,06,06,5.30
2016,03,27,06,07,5.30
2016,03,27,06,08,5.30
2016,03,27,06,09,5.30
2016,03,27,06,10,5.30
2016,03,27,06,11,5.30
2016,03,27,06,12,5.30
2016,03,27,06,13,5.30
2016,03,27,06,14,5.30
2016,03,27,06,15,5.30
2016,03,27,06,16,5.30
2016,03,27,06,17,5.30
2016,03,27,06,18,5.30
2016,03,27,06,19,5.30
2016,03,27,06,20,5.30
2016,03,27,06,21,5.30
2016,03,27,06,22,5.30
2016,03,27,06,23,5.30
2016,03,27,06,24,5.30
2016,03,27,06,25,5.30
2016,03,27,06,26,5.30
2016,03,27,06,27,5.30
2016,03,27,06,28,5.30
2016,03,27,06,29,5.30
2016,03,27,06,30,5.30
2016,03,27,06,31,5.30
2016,03,27,06,32,5.30
2016,03,27,06,33,5.30
2016,03,27,06,34,5.30
2016,03,27,06,35,5.30
2016,03,27,06,36,5.30
2016,03,27,06,37,5.30
2016,03,27,06,38,5.30
2016,03,27,06,39,5.30
2016,03,27,06,40,5.20
2016,03,27,06,41,5.20
2016,03,27,06,42,5.20
2016,03,27,06,43,5.20
2016,03,27,06,44,5.20
2016,03,27,06,45,5.20
2016,03,27,06,46,5.20
2016,03,27,06,47,5.20
2016,03,27,06,48,5.20
2016,03,27,06,49,5.20
2016,03,27,06,50,5.20
2016,03,27,06,51,5.20
2016,03,27,06,52,5.20
2016,03,27,06,53,5.20
2016,03,27,06,54,5.10
2016,03,27,06,55,5.10
2016,03,27,06,56,5.10
2016,03,27,06,57,5.10
2016,03,27,06,58,5.10
2016,03,27,06,59,5.10
2016,03,27,07,00,5.10
2016,03,27,07,01,5.10
2016,03,27,07,02,5.10
2016,03,27,07,03,5.10
2016,03,27,07,04,5.10
2016,03,27,07,05,5.10
2016,03,27,07,06,5.10
2016,03,27,07,07,5.10
2016,03,27,07,08,5.10
2016,03,27,07,09,5.00
2016,03,27,07,10,5.00
2016,03,27,07,11,5.00
2016,03,27,07,12,5.00
2016,03,27,07,13,5.00
2016,03,27,07,14,5.00
2016,03,27,07,15,5.00
2016,03,27,07,16,5.00
2016,03,27,07,17,5.00
2016,03,27,07,18,5.00
2016,03,27,07,19,5.00
2016,03,27,07,20,5.00
2016,03,27,07,21,5.00
2016,03,27,07,22,5.00
2016,03,27,07,23,5.00
2016,03,27,07,24,5.00
2016,03,27,07,25,5.00
2016,03,27,07,26,5.00
2016,03,27,07,27,4.90
2016,03,27,07,28,5.00
2016,03,27,07,29,4.90
2016,03,27,07,30,4.90
2016,03,27,07,31,4.90
2016,03,27,07,32,4.90
2016,03,27,07,33,4.90
2016,03,27,07,34,4.90
2016,03,27,07,35,4.90
2016,03,27,07,36,4.90
2016,03,27,07,37,4.90
2016,03,27,07,38,4.90
2016,03,27,07,39,4.90
2016,03,27,07,40,4.90
2016,03,27,07,41,4.90
2016,03,27,07,42,4.90
2016,03,27,07,43,4.90
2016,03,27,07,44,4.90
2016,03,27,07,45,4.90
2016,03,27,07,46,5.00
2016,03,27,07,47,5.00
2016,03,27,07,48,5.00
2016,03,27,07,49,5.00
2016,03,27,07,50,5.00
2016,03,27,07,51,5.00
2016,03,27,07,52,5.00
2016,03,27,07,53,5.00
2016,03,27,07,54,5.00
2016,03,27,07,55,5.00
2016,03,27,07,56,5.00
2016,03,27,07,57,5.00
2016,03,27,07,58,5.00
2016,03,27,07,59,5.00
2016,03,27,08,00,5.00
2016,03,27,08,01,5.00
2016,03,27,08,02,5.00
2016,03,27,08,03,5.10
2016,03,27,08,04,5.10
2016,03,27,08,05,5.10
2016,03,27,08,06,5.10
2016,03,27,08,07,5.10
2016,03,27,08,08,5.10
2016,03,27,08,09,5.10
2016,03,27,08,10,5.10
2016,03,27,08,11,5.10
2016,03,27,08,12,5.10
2016,03,27,08,13,5.10
2016,03,27,08,14,5.10
2016,03,27,08,15,5.20
2016,03,27,08,16,5.20
2016,03,27,08,17,5.20
2016,03,27,08,18,5.20
2016,03,27,08,19,5.20
2016,03,27,08,20,5.20
2016,03,27,08,21,5.20
2016,03,27,08,22,5.20
2016,03,27,08,23,5.20
2016,03,27,08,24,5.20
2016,03,27,08,25,5.20
2016,03,27,08,26,5.20
2016,03,27,08,27,5.20
2016,03,27,08,28,5.20
2016,03,27,08,29,5.20
2016,03,27,08,30,5.20
2016,03,27,08,31,5.20
2016,03,27,08,32,5.20
2016,03,27,08,33,5.20
2016,03,27,08,34,5.20
2016,03,27,08,35,5.20
2016,03,27,08,36,5.20
2016,03,27,08,37,5.20
2016,03,27,08,38,5.20
2016,03,27,08,39,5.20
2016,03,27,08,40,5.20
2016,03,27,08,41,5.20
2016,03,27,08,42,5.30
2016,03,27,08,43,5.30
2016,03,27,08,44,5.30
2016,03,27,08,45,5.30
2016,03,27,08,46,5.30
2016,03,27,08,47,5.40
2016,03,27,08,48,5.40
2016,03,27,08,49,5.50
2016,03,27,08,50,5.50
2016,03,27,08,51,5.60
2016,03,27,08,52,5.60
2016,03,27,08,53,5.70
2016,03,27,08,54,5.70
2016,03,27,08,55,5.70
2016,03,27,08,56,5.70
2016,03,27,08,57,5.80
2016,03,27,08,58,5.80
2016,03,27,08,59,5.80
2016,03,27,09,00,5.90
2016,03,27,09,01,5.90
2016,03,27,09,02,6.00
2016,03,27,09,03,6.00
2016,03,27,09,04,6.10
2016,03,27,09,05,6.10
2016,03,27,09,06,6.20
2016,03,27,09,07,6.30
2016,03,27,09,08,6.40
2016,03,27,09,09,6.40
2016,03,27,09,10,6.40
2016,03,27,09,11,6.30
2016,03,27,09,12,6.30
2016,03,27,09,13,6.20
2016,03,27,09,14,6.20
2016,03,27,09,15,6.20
2016,03,27,09,16,6.30
2016,03,27,09,17,6.30
2016,03,27,09,18,6.30
2016,03,27,09,19,6.40
2016,03,27,09,20,6.40
2016,03,27,09,21,6.50
2016,03,27,09,22,6.50
2016,03,27,09,23,6.60
2016,03,27,09,24,6.60
2016,03,27,09,25,6.70
2016,03,27,09,26,6.70
2016,03,27,09,27,6.80
2016,03,27,09,28,6.80
2016,03,27,09,29,6.80
2016,03,27,09,30,6.90
2016,03,27,09,31,6.90
2016,03,27,09,32,7.00
2016,03,27,09,33,7.00
2016,03,27,09,34,7.10
2016,03,27,09,35,7.10
2016,03,27,09,36,7.20
2016,03,27,09,37,7.20
2016,03,27,09,38,7.20
2016,03,27,09,39,7.10
2016,03,27,09,40,7.10
2016,03,27,09,41,7.20
2016,03,27,09,42,7.20
2016,03,27,09,43,7.20
2016,03,27,09,44,7.30
2016,03,27,09,45,7.30
2016,03,27,09,46,7.30
2016,03,27,09,47,7.30
2016,03,27,09,48,7.30
2016,03,27,09,49,7.30
2016,03,27,09,50,7.30
2016,03,27,09,51,7.30
2016,03,27,09,52,7.30
2016,03,27,09,53,7.30
2016,03,27,09,54,7.40
2016,03,27,09,55,7.50
2016,03,27,09,56,7.50
2016,03,27,09,57,7.60
2016,03,27,09,58,7.70
2016,03,27,09,59,7.70
2016,03,27,10,00,7.70
2016,03,27,10,01,7.80
2016,03,27,10,02,7.80
2016,03,27,10,03,7.80
2016,03,27,10,04,7.90
2016,03,27,10,05,7.90
2016,03,27,10,06,7.90
2016,03,27,10,07,7.90
2016,03,27,10,08,7.90
2016,03,27,10,09,8.00
2016,03,27,10,10,8.10
2016,03,27,10,11,8.20
2016,03,27,10,12,8.20
2016,03,27,10,13,8.20
2016,03,27,10,14,8.30
2016,03,27,10,15,8.30
2016,03,27,10,16,8.30
2016,03,27,10,17,8.40
2016,03,27,10,18,8.40
2016,03,27,10,19,8.50
2016,03,27,10,20,8.60
2016,03,27,10,21,8.70
2016,03,27,10,22,8.80
2016,03,27,10,23,8.80
2016,03,27,10,24,8.90
2016,03,27,10,25,8.90
2016,03,27,10,26,9.00
2016,03,27,10,27,9.10
2016,03,27,10,28,9.20
2016,03,27,10,29,9.20
2016,03,27,10,30,9.30
2016,03,27,10,31,9.30
2016,03,27,10,32,9.30
2016,03,27,10,33,9.40
2016,03,27,10,34,9.40
2016,03,27,10,35,9.50
2016,03,27,10,36,9.50
2016,03,27,10,37,9.40
2016,03,27,10,38,9.40
2016,03,27,10,39,9.40
2016,03,27,10,40,9.40
2016,03,27,10,41,9.40
2016,03,27,10,42,9.40
2016,03,27,10,43,9.40
2016,03,27,10,44,9.40
2016,03,27,10,45,9.40
2016,03,27,10,46,9.40
2016,03,27,10,47,9.30
2016,03,27,10,48,9.30
2016,03,27,10,49,9.30
2016,03,27,10,50,9.40
2016,03,27,10,51,9.50
2016,03,27,10,52,9.50
2016,03,27,10,53,9.60
2016,03,27,10,54,9.60
2016,03,27,10,55,9.60
2016,03,27,10,56,9.60
2016,03,27,10,57,9.60
2016,03,27,10,58,9.70
2016,03,27,10,59,9.70
2016,03,27,11,00,9.70
2016,03,27,11,01,9.80
2016,03,27,11,02,9.80
2016,03,27,11,03,9.80
2016,03,27,11,04,9.80
2016,03,27,11,05,9.80
2016,03,27,11,06,9.80
2016,03,27,11,07,9.80
2016,03,27,11,08,9.80
2016,03,27,11,09,9.80
2016,03,27,11,10,9.70
2016,03,27,11,11,9.70
2016,03,27,11,12,9.70
2016,03,27,11,13,9.70
2016,03,27,11,14,9.70
2016,03,27,11,15,9.60
2016,03,27,11,16,9.60
2016,03,27,11,17,9.60
2016,03,27,11,18,9.60
2016,03,27,11,19,9.50
2016,03,27,11,20,9.60
2016,03,27,11,21,9.60
2016,03,27,11,22,9.60
2016,03,27,11,23,9.60
2016,03,27,11,24,9.60
2016,03,27,11,25,9.60
2016,03,27,11,26,9.60
2016,03,27,11,27,9.60
2016,03,27,11,28,9.60
2016,03,27,11,29,9.70
2016,03,27,11,30,9.70
2016,03,27,11,31,9.70
2016,03,27,11,32,9.70
2016,03,27,11,33,9.80
2016,03,27,11,34,9.80
2016,03,27,11,35,9.80
2016,03,27,11,36,9.80
2016,03,27,11,37,9.80
2016,03,27,11,38,9.80
2016,03,27,11,39,9.90
2016,03,27,11,40,9.80
2016,03,27,11,41,9.90
2016,03,27,11,42,9.90
2016,03,27,11,43,9.90
2016,03,27,11,44,9.90
2016,03,27,11,45,9.90
2016,03,27,11,46,10.00
2016,03,27,11,47,10.10
2016,03,27,11,48,10.10
2016,03,27,11,49,10.20
2016,03,27,11,50,10.20
2016,03,27,11,51,10.20
2016,03,27,11,52,10.20
2016,03,27,11,53,10.30
2016,03,27,11,54,10.40
2016,03,27,11,55,10.40
2016,03,27,11,56,10.40
2016,03,27,11,57,10.40
2016,03,27,11,58,10.50
2016,03,27,11,59,10.40
2016,03,27,12,00,10.40
2016,03,27,12,01,10.40
2016,03,27,12,02,10.40
2016,03,27,12,03,10.30
2016,03,27,12,04,10.30
2016,03,27,12,05,10.20
2016,03,27,12,06,10.20
2016,03,27,12,07,10.20
2016,03,27,12,08,10.20
2016,03,27,12,09,10.20
2016,03,27,12,10,10.20
2016,03,27,12,11,10.20
2016,03,27,12,12,10.20
2016,03,27,12,13,10.30
2016,03,27,12,14,10.30
2016,03,27,12,15,10.40
2016,03,27,12,16,10.50
2016,03,27,12,17,10.50
2016,03,27,12,18,10.60
2016,03,27,12,19,10.70
2016,03,27,12,20,10.70
2016,03,27,12,21,10.80
2016,03,27,12,22,10.90
2016,03,27,12,23,11.00
2016,03,27,12,24,11.10
2016,03,27,12,25,11.20
2016,03,27,12,26,11.20
2016,03,27,12,27,11.20
2016,03,27,12,28,11.20
2016,03,27,12,29,11.20
2016,03,27,12,30,11.10
2016,03,27,12,31,11.10
2016,03,27,12,32,11.10
2016,03,27,12,33,11.00
2016,03,27,12,34,11.10
2016,03,27,12,35,11.10
2016,03,27,12,36,11.10
2016,03,27,12,37,11.10
2016,03,27,12,38,11.10
2016,03,27,12,39,11.10
2016,03,27,12,40,11.10
2016,03,27,12,41,11.10
2016,03,27,12,42,11.10
2016,03,27,12,43,11.20
2016,03,27,12,44,11.20
2016,03,27,12,45,11.20
2016,03,27,12,46,11.30
2016,03,27,12,47,11.30
2016,03,27,12,48,11.40
2016,03,27,12,49,11.40
2016,03,27,12,50,11.50
2016,03,27,12,51,11.50
2016,03,27,12,52,11.60
2016,03,27,12,53,11.70
2016,03,27,12,54,11.70
2016,03,27,12,55,11.70
2016,03,27,12,56,11.70
2016,03,27,12,57,11.70
2016,03,27,12,58,11.70
2016,03,27,12,59,11.70
2016,03,27,13,00,11.70
2016,03,27,13,01,11.80
2016,03,27,13,02,11.80
2016,03,27,13,03,11.90
2016,03,27,13,04,11.90
2016,03,27,13,05,11.90
2016,03,27,13,06,12.00
2016,03,27,13,07,12.10
2016,03,27,13,08,12.20
2016,03,27,13,09,12.20
2016,03,27,13,10,12.20
2016,03,27,13,11,12.20
2016,03,27,13,12,12.20
2016,03,27,13,13,12.10
2016,03,27,13,14,12.10
2016,03,27,13,15,12.10
2016,03,27,13,16,12.10
2016,03,27,13,17,12.20
2016,03,27,13,18,12.20
2016,03,27,13,19,12.20
2016,03,27,13,20,12.30
2016,03,27,13,21,12.30
2016,03,27,13,22,12.20
2016,03,27,13,23,12.20
2016,03,27,13,24,12.10
2016,03,27,13,25,12.10
2016,03,27,13,26,12.00
2016,03,27,13,27,12.00
2016,03,27,13,28,12.00
2016,03,27,13,29,11.90
2016,03,27,13,30,11.80
2016,03,27,13,31,11.70
2016,03,27,13,32,11.70
2016,03,27,13,33,11.70
2016,03,27,13,34,11.70
2016,03,27,13,35,11.70
2016,03,27,13,36,11.80
2016,03,27,13,37,11.90
2016,03,27,13,38,11.90
2016,03,27,13,39,12.00
2016,03,27,13,40,12.00
2016,03,27,13,41,12.00
2016,03,27,13,42,12.00
2016,03,27,13,43,12.10
2016,03,27,13,44,12.10
2016,03,27,13,45,12.00
2016,03,27,13,46,12.00
2016,03,27,13,47,12.00
2016,03,27,13,48,11.90
2016,03,27,13,49,11.80
2016,03,27,13,50,11.80
2016,03,27,13,51,11.80
2016,03,27,13,52,11.70
2016,03,27,13,53,11.80
2016,03,27,13,54,11.80
2016,03,27,13,55,11.80
2016,03,27,13,56,11.80
2016,03,27,13,57,11.70
2016,03,27,13,58,11.80
2016,03,27,13,59,11.80
2016,03,27,14,00,11.80
2016,03,27,14,01,11.80
2016,03,27,14,02,11.80
2016,03,27,14,03,11.70
2016,03,27,14,04,11.70
2016,03,27,14,05,11.70
2016,03,27,14,06,11.60
2016,03,27,14,07,11.60
2016,03,27,14,08,11.50
2016,03,27,14,09,11.50
2016,03,27,14,10,11.40
2016,03,27,14,11,11.40
2016,03,27,14,12,11.40
2016,03,27,14,13,11.30
2016,03,27,14,14,11.40
2016,03,27,14,15,11.40
2016,03,27,14,16,11.50
2016,03,27,14,17,11.60
2016,03,27,14,18,11.70
2016,03,27,14,19,11.80
2016,03,27,14,20,11.90
2016,03,27,14,21,11.90
2016,03,27,14,22,11.90
2016,03,27,14,23,11.90
2016,03,27,14,24,11.90
2016,03,27,14,25,11.90
2016,03,27,14,26,11.90
2016,03,27,14,27,11.80
2016,03,27,14,28,11.80
2016,03,27,14,29,11.80
2016,03,27,14,30,11.70
2016,03,27,14,31,11.60
2016,03,27,14,32,11.60
2016,03,27,14,33,11.60
2016,03,27,14,34,11.50
2016,03,27,14,35,11.50
2016,03,27,14,36,11.50
2016,03,27,14,37,11.60
2016,03,27,14,38,11.60
2016,03,27,14,39,11.70
2016,03,27,14,40,11.60
2016,03,27,14,41,11.60
2016,03,27,14,42,11.70
2016,03,27,14,43,11.70
2016,03,27,14,44,11.70
2016,03,27,14,45,11.70
2016,03,27,14,46,11.70
2016,03,27,14,47,11.70
2016,03,27,14,48,11.70
2016,03,27,14,49,11.70
2016,03,27,14,50,11.80
2016,03,27,14,51,11.90
2016,03,27,14,52,12.00
2016,03,27,14,53,12.00
2016,03,27,14,54,12.10
2016,03,27,14,55,12.10
2016,03,27,14,56,12.10
2016,03,27,14,57,12.20
2016,03,27,14,58,12.20
2016,03,27,14,59,12.20
2016,03,27,15,00,12.20
2016,03,27,15,01,12.20
2016,03,27,15,02,12.20
2016,03,27,15,03,12.20
2016,03,27,15,04,12.10
2016,03,27,15,05,12.00
2016,03,27,15,06,12.00
2016,03,27,15,07,11.90
2016,03,27,15,08,11.90
2016,03,27,15,09,11.80
2016,03,27,15,10,11.80
2016,03,27,15,11,11.80
2016,03,27,15,12,11.70
2016,03,27,15,13,11.60
2016,03,27,15,14,11.50
2016,03,27,15,15,11.30
2016,03,27,15,16,11.30
2016,03,27,15,17,11.20
2016,03,27,15,18,11.20
2016,03,27,15,19,11.20
2016,03,27,15,20,11.20
2016,03,27,15,21,11.20
2016,03,27,15,22,11.30
2016,03,27,15,23,11.40
2016,03,27,15,24,11.40
2016,03,27,15,25,11.40
2016,03,27,15,26,11.30
2016,03,27,15,27,11.30
2016,03,27,15,28,11.20
2016,03,27,15,29,11.20
2016,03,27,15,30,11.10
2016,03,27,15,31,11.10
2016,03,27,15,32,11.10
2016,03,27,15,33,11.00
2016,03,27,15,34,11.00
2016,03,27,15,35,10.90
2016,03,27,15,36,10.90
2016,03,27,15,37,10.80
2016,03,27,15,38,10.80
2016,03,27,15,39,10.80
2016,03,27,15,40,10.80
2016,03,27,15,41,10.80
2016,03,27,15,42,10.70
2016,03,27,15,43,10.70
2016,03,27,15,44,10.70
2016,03,27,15,45,10.70
2016,03,27,15,46,10.70
2016,03,27,15,47,10.70
2016,03,27,15,48,10.70
2016,03,27,15,49,10.70
2016,03,27,15,50,10.70
2016,03,27,15,51,10.70
2016,03,27,15,52,10.70
2016,03,27,15,53,10.70
2016,03,27,15,54,10.80
2016,03,27,15,55,10.80
2016,03,27,15,56,10.90
2016,03,27,15,57,11.00
2016,03,27,15,58,11.10
2016,03,27,15,59,11.10
2016,03,27,16,00,11.20
2016,03,27,16,01,11.20
2016,03,27,16,02,11.30
2016,03,27,16,03,11.30
2016,03,27,16,04,11.30
2016,03,27,16,05,11.30
2016,03,27,16,06,11.30
2016,03,27,16,07,11.30
2016,03,27,16,08,11.40
2016,03,27,16,09,11.40
2016,03,27,16,10,11.40
2016,03,27,16,11,11.40
2016,03,27,16,12,11.40
2016,03,27,16,13,11.40
2016,03,27,16,14,11.40
2016,03,27,16,15,11.50
2016,03,27,16,16,11.50
2016,03,27,16,17,11.40
2016,03,27,16,18,11.50
2016,03,27,16,19,11.50
2016,03,27,16,20,11.50
2016,03,27,16,21,11.50
2016,03,27,16,22,11.50
2016,03,27,16,23,11.40
2016,03,27,16,24,11.40
2016,03,27,16,25,11.40
2016,03,27,16,26,11.30
2016,03,27,16,27,11.30
2016,03,27,16,28,11.30
2016,03,27,16,29,11.30
2016,03,27,16,30,11.30
2016,03,27,16,31,11.30
2016,03,27,16,32,11.30
2016,03,27,16,33,11.30
2016,03,27,16,34,11.30
2016,03,27,16,35,11.20
2016,03,27,16,36,11.20
2016,03,27,16,37,11.20
2016,03,27,16,38,11.20
2016,03,27,16,39,11.20
2016,03,27,16,40,11.20
2016,03,27,16,41,11.20
2016,03,27,16,42,11.10
2016,03,27,16,43,11.00
2016,03,27,16,44,10.90
2016,03,27,16,45,10.80
2016,03,27,16,46,10.80
2016,03,27,16,47,10.70
2016,03,27,16,48,10.60
2016,03,27,16,49,10.60
2016,03,27,16,50,10.50
2016,03,27,16,51,10.40
2016,03,27,16,52,10.40
2016,03,27,16,53,10.30
2016,03,27,16,54,10.30
2016,03,27,16,55,10.30
2016,03,27,16,56,10.20
2016,03,27,16,57,10.20
2016,03,27,16,58,10.20
2016,03,27,16,59,10.20
2016,03,27,17,00,10.20
2016,03,27,17,01,10.10
2016,03,27,17,02,10.10
2016,03,27,17,03,10.10
2016,03,27,17,04,10.10
2016,03,27,17,05,10.10
2016,03,27,17,06,10.10
2016,03,27,17,07,10.10
2016,03,27,17,08,10.20
2016,03,27,17,09,10.20
2016,03,27,17,10,10.20
2016,03,27,17,11,10.20
2016,03,27,17,12,10.20
2016,03,27,17,13,10.20
2016,03,27,17,14,10.20
2016,03,27,17,15,10.20
2016,03,27,17,16,10.20
2016,03,27,17,17,10.20
2016,03,27,17,18,10.20
2016,03,27,17,19,10.10
2016,03,27,17,20,10.10
2016,03,27,17,21,10.10
2016,03,27,17,22,10.20
2016,03,27,17,23,10.20
2016,03,27,17,24,10.20
2016,03,27,17,25,10.20
2016,03,27,17,26,10.30
2016,03,27,17,27,10.30
2016,03,27,17,28,10.30
2016,03,27,17,29,10.20
2016,03,27,17,30,10.20
2016,03,27,17,31,10.20
2016,03,27,17,32,10.10
2016,03,27,17,33,10.10
2016,03,27,17,34,10.00
2016,03,27,17,35,10.00
2016,03,27,17,36,9.90
2016,03,27,17,37,9.90
2016,03,27,17,38,9.80
2016,03,27,17,39,9.80
2016,03,27,17,40,9.80
2016,03,27,17,41,9.80
2016,03,27,17,42,9.70
2016,03,27,17,43,9.70
2016,03,27,17,44,9.70
2016,03,27,17,45,9.70
2016,03,27,17,46,9.70
2016,03,27,17,47,9.70
2016,03,27,17,48,9.70
2016,03,27,17,49,9.70
2016,03,27,17,50,9.70